Вернуться в каталог

FREGAT DEB

LostUNKNOWN
NORAD 45907·DEBRIS·🇷🇺 Russia

Запущен Jul 18, 2011 с Baikonur Cosmodrome

Loading…

Ближайшие Пролёты (ближайшие 24 часа)

TLE

УстаревшееSource: Space-Track

Эпоха: Jun 13, 2022, 17:31 UTC

1 45907U 11037EC  22164.73004500  .01419545  00000-0  57239+0 0  9995
2 45907  50.6096 283.1432 1061734 185.8928 172.8539 12.71782921 87616

Отслеживайте FREGAT DEB в реальном времени с AllMySat

Download on the App Store